This demonstration page uses our WeatherBlox Daily Observations layout. Learn more.

Left ArrowRight Arrow

34.74481, -87.66753

Hourly Observations for May 3, 2017

Temp ( °F °C ) Dew Point ( °F °C ) Humidity (%) Winds ( mph kmh ) Pressure ( in mb ) Visibility ( mi km ) Precip ( " mm )
12:53 am 00:53 Clear 55 12.8 51 10.6 87 87 Calm 30.03 1017 10 16 0.00 0.00
1:53 am 01:53 Clear 56 13.3 52 11.1 87 87 Calm 30.02 1017 10 16 0.00 0.00
2:53 am 02:53 Clear 52 11.1 49 9.4 89 89 Calm 30.02 1017 10 16 0.00 0.00
3:53 am 03:53 Clear 52 11.1 48 8.9 86 86 Calm 30.02 1017 10 16 0.00 0.00
4:53 am 04:53 Clear 50 10 48 8.9 93 93 Calm 30.02 1017 10 16 0.00 0.00
5:53 am 05:53 Clear 51 10.6 48 8.9 89 89 Calm 30.04 1017 10 16 0.00 0.00
6:53 am 06:53 Sunny 55 12.8 51 10.6 87 87 Calm 30.05 1018 10 16 0.00 0.00
7:53 am 07:53 Sunny 60 15.6 54 12.2 80 80 SSE 3 6 30.06 1018 10 16 0.00 0.00
8:53 am 08:53 Sunny 67 19.4 55 12.8 66 66 ESE 7 11 30.04 1017 10 16 0.00 0.00
9:53 am 09:53 Sunny 72 22.2 54 12.2 53 53 ESE 8 13 30.03 1017 10 16 0.00 0.00
10:53 am 10:53 Sunny 75 23.9 53 11.7 46 46 SE 7 11 29.99 1016 10 16 0.00 0.00
11:53 am 11:53 Sunny 79 26.1 55 12.8 44 44 SE 10 17 29.92 1013 10 16 0.00 0.00
12:53 pm 12:53 Sunny 80 26.7 57 13.9 45 45 SSE 7 11 29.92 1013 10 16 0.00 0.00
1:53 pm 13:53 Mostly Sunny 82 27.8 57 13.9 42 42 SSE 12 19 29.92 1013 10 16 0.00 0.00
2:53 pm 14:53 Mostly Sunny 82 27.8 55 12.8 40 40 S 13 20 29.91 1013 10 16 0.00 0.00
3:53 pm 15:53 Mostly Sunny 80 26.7 56 13.3 44 44 S 10 17 29.90 1013 10 16 0.00 0.00
4:53 pm 16:53 Sunny 78 25.6 57 13.9 48 48 S 9 15 29.89 1012 10 16 0.00 0.00
5:53 pm 17:53 Sunny 76 24.4 56 13.3 50 50 S 7 11 29.87 1012 10 16 0.00 0.00
6:53 pm 18:53 Sunny 72 22.2 60 15.6 66 66 SSE 3 6 29.86 1011 10 16 0.00 0.00
7:53 pm 19:53 Mostly Clear 69 20.6 61 16.1 76 76 SE 3 6 29.86 1011 10 16 0.00 0.00
8:53 pm 20:53 Cloudy 71 21.7 59 15 66 66 SE 6 9 29.86 1011 10 16 0.00 0.00
9:53 pm 21:53 Cloudy with Light Rain 70 21.1 59 15 68 68 S 5 7 29.85 1011 10 16 0.00 0.03
10:53 pm 22:53 Cloudy with Light Rain 68 20 60 15.6 76 76 S 7 11 29.85 1011 10 16 0.01 0.25
11:53 pm 23:53 Cloudy 68 20 59 15 73 73 S 10 17 29.82 1010 10 16 0.00 0.03

Powered by AerisWeather